Content
SEND FEEDBACK

Daily
Averages
Monthly
Summary
United States of America

PLEASANT HILL, MISSOURI


Home > North America > United States > Missouri
Elevation: 890 feet     Latitude: 38 48N     Longitude: 094 17W

WEATHER
 
SELECT A DAY
Number of Records: 131,092;   Date Range: 3/9/02 - 11/21/14
 
SHARE

PRINT THIS DATA

[ ← Previous Day ]
WEATHER ALMANAC - JANUARY 31, 2013
[ Next Day → ]
[ °C ]   °F
Weather ElementAverageHighLow
Temperature17.9 °F24.1 °F (4:53 am)9 °F (11:53 pm)
Dewpoint7 °F17.1 °F (4:53 am)-2.9 °F (8:53 pm)
Humidity62.8 %75 % (2:53 am)50 % (10:53 am)
Barometer30.22 in30.51 in (9:53 pm)29.98 in (4:53 am)
Wind Speed11.8 mph27.6 mph (12:53 pm)
Wind Gust35.7 mph (12:53 pm)
Weather ElementAverage
Visibility10 mi
Wind DirectionWNW (299 °)

Weather ElementTotal
Precipitation---
Heating Degree Days48.5 (Base 65)
Averaged from 21 records on January 31, 2013
WEATHER CONDITIONS BREAKOUT
WIND DIRECTION BREAKOUT
WEATHER BY HOUR - JANUARY 31, 2013
[ °C ]   °F
Local TimeTemperatureDewpointHumidityBarometerVisibilityWind DirectionWind SpeedGust SpeedPrecipitationEventsConditions
1:53 AM21.0 °F14.0 °F74 %30.00 in10.0 miSW (220°)8.1 mphMostly Cloudy
2:53 AM21.9 °F15.1 °F75 %30.00 in10.0 miSW (230°)8.1 mphOvercast
3:53 AM23.0 °F16.0 °F74 %30.00 in10.0 miSW (230°)6.9 mphOvercast
4:53 AM24.1 °F17.1 °F75 %29.98 in10.0 miWSW (240°)4.6 mphOvercast
5:53 AM24.1 °F17.1 °F75 %29.99 in10.0 miWSW (250°)3.5 mphMostly Cloudy
6:53 AM24.1 °F17.1 °F75 %30.03 in10.0 miNNW (340°)9.2 mphPartly Cloudy
7:53 AM21.9 °F14.0 °F72 %30.08 in10.0 miNNW (340°)15.0 mphMostly Cloudy
8:53 AM23.0 °F12.9 °F65 %30.10 in10.0 miNW (310°)9.2 mphClear
9:53 AM21.9 °F10.9 °F63 %30.14 in10.0 miNNW (330°)12.7 mphMostly Cloudy
10:53 AM21.0 °F5.0 °F50 %30.17 in10.0 miNNW (330°)15.0 mph24.2 mphOvercast
11:53 AM19.9 °F5.0 °F52 %30.22 in10.0 miNW (320°)13.8 mph28.8 mphOvercast
12:53 PM19.9 °F5.0 °F52 %30.24 in10.0 miNW (320°)27.6 mph35.7 mphOvercast
2:53 PM19.0 °F5.0 °F54 %30.29 in10.0 miNW (310°)19.6 mph26.5 mphPartly Cloudy
3:53 PM12.9 °F1.0 °F59 %30.33 in10.0 miNW (310°)13.8 mph21.9 mphClear
4:53 PM15.1 °F1.0 °F54 %30.35 in10.0 miWNW (300°)17.3 mph21.9 mphClear
5:53 PM12.0 °F0.0 °F59 %30.38 in10.0 miNNW (340°)12.7 mphClear
6:53 PM10.9 °F-2.0 °F56 %30.42 in10.0 miNNW (330°)15.0 mphClear
7:53 PM10.9 °F-2.0 °F56 %30.44 in10.0 miNW (320°)10.4 mphClear
8:53 PM10.0 °F-2.9 °F56 %30.47 in10.0 miWNW (300°)11.5 mph17.3 mphClear
9:53 PM10.0 °F-2.0 °F58 %30.51 in10.0 miWNW (290°)6.9 mphClear
11:53 PM9.0 °F-0.9 °F64 %30.50 in10.0 miNW (320°)6.9 mphClear
Hourly data recorded from KLXT, located miles away from Pleasant Hill, Missouri







STORIES FROM OUR PARTNERS